Year,Month,Day,Hour,Minute,Value (Times are PST for temperature in C)
2015,02,11,00,00,9.00
2015,02,11,00,01,9.10
2015,02,11,00,02,9.10
2015,02,11,00,03,9.10
2015,02,11,00,04,9.10
2015,02,11,00,05,9.10
2015,02,11,00,06,9.10
2015,02,11,00,07,9.10
2015,02,11,00,08,9.10
2015,02,11,00,09,9.20
2015,02,11,00,10,9.20
2015,02,11,00,11,9.20
2015,02,11,00,12,9.20
2015,02,11,00,13,9.20
2015,02,11,00,14,9.20
2015,02,11,00,15,9.20
2015,02,11,00,16,9.20
2015,02,11,00,17,9.20
2015,02,11,00,18,9.20
2015,02,11,00,19,9.20
2015,02,11,00,20,9.20
2015,02,11,00,21,9.20
2015,02,11,00,22,9.20
2015,02,11,00,23,9.20
2015,02,11,00,24,9.10
2015,02,11,00,25,9.10
2015,02,11,00,26,9.10
2015,02,11,00,27,9.10
2015,02,11,00,28,9.10
2015,02,11,00,29,9.10
2015,02,11,00,30,9.10
2015,02,11,00,31,9.10
2015,02,11,00,32,9.10
2015,02,11,00,33,9.10
2015,02,11,00,34,9.10
2015,02,11,00,35,9.10
2015,02,11,00,36,9.00
2015,02,11,00,37,9.00
2015,02,11,00,38,9.00
2015,02,11,00,39,9.00
2015,02,11,00,40,9.00
2015,02,11,00,41,9.00
2015,02,11,00,42,9.00
2015,02,11,00,43,9.00
2015,02,11,00,44,8.90
2015,02,11,00,45,8.90
2015,02,11,00,46,8.90
2015,02,11,00,47,8.90
2015,02,11,00,48,8.90
2015,02,11,00,49,8.90
2015,02,11,00,50,8.90
2015,02,11,00,51,8.90
2015,02,11,00,52,8.90
2015,02,11,00,53,8.90
2015,02,11,00,54,8.90
2015,02,11,00,55,8.90
2015,02,11,00,56,8.90
2015,02,11,00,57,8.80
2015,02,11,00,58,8.90
2015,02,11,00,59,8.90
2015,02,11,01,00,8.90
2015,02,11,01,01,8.90
2015,02,11,01,02,8.90
2015,02,11,01,03,8.90
2015,02,11,01,04,8.90
2015,02,11,01,05,8.80
2015,02,11,01,06,8.80
2015,02,11,01,07,8.80
2015,02,11,01,08,8.80
2015,02,11,01,09,8.80
2015,02,11,01,10,8.80
2015,02,11,01,11,8.80
2015,02,11,01,12,8.80
2015,02,11,01,13,8.80
2015,02,11,01,14,8.80
2015,02,11,01,15,8.80
2015,02,11,01,16,8.80
2015,02,11,01,17,8.90
2015,02,11,01,18,8.90
2015,02,11,01,19,8.90
2015,02,11,01,20,8.90
2015,02,11,01,21,8.90
2015,02,11,01,22,8.90
2015,02,11,01,23,8.90
2015,02,11,01,24,8.90
2015,02,11,01,25,8.90
2015,02,11,01,26,8.90
2015,02,11,01,27,8.90
2015,02,11,01,28,8.90
2015,02,11,01,29,8.90
2015,02,11,01,30,8.90
2015,02,11,01,31,8.90
2015,02,11,01,32,8.90
2015,02,11,01,33,8.90
2015,02,11,01,34,8.90
2015,02,11,01,35,8.90
2015,02,11,01,36,8.90
2015,02,11,01,37,8.90
2015,02,11,01,38,8.90
2015,02,11,01,39,8.90
2015,02,11,01,40,8.90
2015,02,11,01,41,8.90
2015,02,11,01,42,8.90
2015,02,11,01,43,8.90
2015,02,11,01,44,8.90
2015,02,11,01,45,8.90
2015,02,11,01,46,8.90
2015,02,11,01,47,8.90
2015,02,11,01,48,8.90
2015,02,11,01,49,8.90
2015,02,11,01,50,8.90
2015,02,11,01,51,8.90
2015,02,11,01,52,8.90
2015,02,11,01,53,8.90
2015,02,11,01,54,8.90
2015,02,11,01,55,8.90
2015,02,11,01,56,8.90
2015,02,11,01,57,8.90
2015,02,11,01,58,8.90
2015,02,11,01,59,8.90
2015,02,11,02,00,8.90
2015,02,11,02,01,8.90
2015,02,11,02,02,8.90
2015,02,11,02,03,8.90
2015,02,11,02,04,8.90
2015,02,11,02,05,8.90
2015,02,11,02,06,8.90
2015,02,11,02,07,8.90
2015,02,11,02,08,8.90
2015,02,11,02,09,8.90
2015,02,11,02,10,8.90
2015,02,11,02,11,8.90
2015,02,11,02,12,8.90
2015,02,11,02,13,8.90
2015,02,11,02,14,8.90
2015,02,11,02,15,8.90
2015,02,11,02,16,8.90
2015,02,11,02,17,8.90
2015,02,11,02,18,8.90
2015,02,11,02,19,8.90
2015,02,11,02,20,8.90
2015,02,11,02,21,9.00
2015,02,11,02,22,9.00
2015,02,11,02,23,9.00
2015,02,11,02,24,9.00
2015,02,11,02,25,9.00
2015,02,11,02,26,9.00
2015,02,11,02,27,9.00
2015,02,11,02,28,9.00
2015,02,11,02,29,9.00
2015,02,11,02,30,9.00
2015,02,11,02,31,9.00
2015,02,11,02,32,9.10
2015,02,11,02,33,9.00
2015,02,11,02,34,9.10
2015,02,11,02,35,9.00
2015,02,11,02,36,9.10
2015,02,11,02,37,9.10
2015,02,11,02,38,9.10
2015,02,11,02,39,9.10
2015,02,11,02,40,9.10
2015,02,11,02,41,9.10
2015,02,11,02,42,9.10
2015,02,11,02,43,9.10
2015,02,11,02,44,9.10
2015,02,11,02,45,9.10
2015,02,11,02,46,9.10
2015,02,11,02,47,9.10
2015,02,11,02,48,9.10
2015,02,11,02,49,9.10
2015,02,11,02,50,9.10
2015,02,11,02,51,9.10
2015,02,11,02,52,9.10
2015,02,11,02,53,9.10
2015,02,11,02,54,9.20
2015,02,11,02,55,9.20
2015,02,11,02,56,9.20
2015,02,11,02,57,9.20
2015,02,11,02,58,9.20
2015,02,11,02,59,9.20
2015,02,11,03,00,9.20
2015,02,11,03,01,9.20
2015,02,11,03,02,9.20
2015,02,11,03,03,9.20
2015,02,11,03,04,9.20
2015,02,11,03,05,9.20
2015,02,11,03,06,9.20
2015,02,11,03,07,9.20
2015,02,11,03,08,9.20
2015,02,11,03,09,9.20
2015,02,11,03,10,9.20
2015,02,11,03,11,9.10
2015,02,11,03,12,9.10
2015,02,11,03,13,9.10
2015,02,11,03,14,9.10
2015,02,11,03,15,9.10
2015,02,11,03,16,9.10
2015,02,11,03,17,9.10
2015,02,11,03,18,9.10
2015,02,11,03,19,9.10
2015,02,11,03,20,9.10
2015,02,11,03,21,9.10
2015,02,11,03,22,9.10
2015,02,11,03,23,9.10
2015,02,11,03,24,9.10
2015,02,11,03,25,9.10
2015,02,11,03,26,9.10
2015,02,11,03,27,9.10
2015,02,11,03,28,9.10
2015,02,11,03,29,9.10
2015,02,11,03,30,9.10
2015,02,11,03,31,9.10
2015,02,11,03,32,9.10
2015,02,11,03,33,9.10
2015,02,11,03,34,9.10
2015,02,11,03,35,9.10
2015,02,11,03,36,9.10
2015,02,11,03,37,9.10
2015,02,11,03,38,9.10
2015,02,11,03,39,9.10
2015,02,11,03,40,9.00
2015,02,11,03,41,9.00
2015,02,11,03,42,9.00
2015,02,11,03,43,9.00
2015,02,11,03,44,9.00
2015,02,11,03,45,9.00
2015,02,11,03,46,9.00
2015,02,11,03,47,9.00
2015,02,11,03,48,9.00
2015,02,11,03,49,9.00
2015,02,11,03,50,9.00
2015,02,11,03,51,9.00
2015,02,11,03,52,9.00
2015,02,11,03,53,9.00
2015,02,11,03,54,9.00
2015,02,11,03,55,9.00
2015,02,11,03,56,9.00
2015,02,11,03,57,9.10
2015,02,11,03,58,9.10
2015,02,11,03,59,9.10
2015,02,11,04,00,9.10
2015,02,11,04,01,9.10
2015,02,11,04,02,9.20
2015,02,11,04,03,9.20
2015,02,11,04,04,9.20
2015,02,11,04,05,9.20
2015,02,11,04,06,9.20
2015,02,11,04,07,9.20
2015,02,11,04,08,9.20
2015,02,11,04,09,9.20
2015,02,11,04,10,9.20
2015,02,11,04,11,9.20
2015,02,11,04,12,9.20
2015,02,11,04,13,9.20
2015,02,11,04,14,9.20
2015,02,11,04,15,9.20
2015,02,11,04,16,9.20
2015,02,11,04,17,9.20
2015,02,11,04,18,9.20
2015,02,11,04,19,9.30
2015,02,11,04,20,9.30
2015,02,11,04,21,9.30
2015,02,11,04,22,9.30
2015,02,11,04,23,9.40
2015,02,11,04,24,9.40
2015,02,11,04,25,9.40
2015,02,11,04,26,9.40
2015,02,11,04,27,9.40
2015,02,11,04,28,9.40
2015,02,11,04,29,9.40
2015,02,11,04,30,9.40
2015,02,11,04,31,9.40
2015,02,11,04,32,9.40
2015,02,11,04,33,9.40
2015,02,11,04,34,9.40
2015,02,11,04,35,9.50
2015,02,11,04,36,9.50
2015,02,11,04,37,9.50
2015,02,11,04,38,9.40
2015,02,11,04,39,9.40
2015,02,11,04,40,9.40
2015,02,11,04,41,9.50
2015,02,11,04,42,9.50
2015,02,11,04,43,9.50
2015,02,11,04,44,9.50
2015,02,11,04,45,9.50
2015,02,11,04,46,9.50
2015,02,11,04,47,9.50
2015,02,11,04,48,9.60
2015,02,11,04,49,9.60
2015,02,11,04,50,9.50
2015,02,11,04,51,9.50
2015,02,11,04,52,9.50
2015,02,11,04,53,9.40
2015,02,11,04,54,9.40
2015,02,11,04,55,9.40
2015,02,11,04,56,9.40
2015,02,11,04,57,9.40
2015,02,11,04,58,9.40
2015,02,11,04,59,9.40
2015,02,11,05,00,9.40
2015,02,11,05,01,9.40
2015,02,11,05,02,9.40
2015,02,11,05,03,9.40
2015,02,11,05,04,9.40
2015,02,11,05,05,9.40
2015,02,11,05,06,9.30
2015,02,11,05,07,9.30
2015,02,11,05,08,9.40
2015,02,11,05,09,9.30
2015,02,11,05,10,9.30
2015,02,11,05,11,9.30
2015,02,11,05,12,9.30
2015,02,11,05,13,9.30
2015,02,11,05,14,9.30
2015,02,11,05,15,9.30
2015,02,11,05,16,9.30
2015,02,11,05,17,9.30
2015,02,11,05,18,9.30
2015,02,11,05,19,9.30
2015,02,11,05,20,9.30
2015,02,11,05,21,9.30
2015,02,11,05,22,9.40
2015,02,11,05,23,9.40
2015,02,11,05,24,9.40
2015,02,11,05,25,9.40
2015,02,11,05,26,9.30
2015,02,11,05,27,9.30
2015,02,11,05,28,9.30
2015,02,11,05,29,9.30
2015,02,11,05,30,9.30
2015,02,11,05,31,9.30
2015,02,11,05,32,9.30
2015,02,11,05,33,9.40
2015,02,11,05,34,9.30
2015,02,11,05,35,9.30
2015,02,11,05,36,9.30
2015,02,11,05,37,9.30
2015,02,11,05,38,9.30
2015,02,11,05,39,9.30
2015,02,11,05,40,9.30
2015,02,11,05,41,9.30
2015,02,11,05,42,9.30
2015,02,11,05,43,9.30
2015,02,11,05,44,9.30
2015,02,11,05,45,9.20
2015,02,11,05,46,9.20
2015,02,11,05,47,9.20
2015,02,11,05,48,9.20
2015,02,11,05,49,9.20
2015,02,11,05,50,9.20
2015,02,11,05,51,9.20
2015,02,11,05,52,9.20
2015,02,11,05,53,9.20
2015,02,11,05,54,9.20
2015,02,11,05,55,9.20
2015,02,11,05,56,9.20
2015,02,11,05,57,9.20
2015,02,11,05,58,9.20
2015,02,11,05,59,9.20
2015,02,11,06,00,9.20
2015,02,11,06,01,9.20
2015,02,11,06,02,9.20
2015,02,11,06,03,9.20
2015,02,11,06,04,9.20
2015,02,11,06,05,9.20
2015,02,11,06,06,9.20
2015,02,11,06,07,9.20
2015,02,11,06,08,9.20
2015,02,11,06,09,9.20
2015,02,11,06,10,9.30
2015,02,11,06,11,9.30
2015,02,11,06,12,9.30
2015,02,11,06,13,9.30
2015,02,11,06,14,9.30
2015,02,11,06,15,9.30
2015,02,11,06,16,9.30
2015,02,11,06,17,9.30
2015,02,11,06,18,9.30
2015,02,11,06,19,9.40
2015,02,11,06,20,9.40
2015,02,11,06,21,9.40
2015,02,11,06,22,9.40
2015,02,11,06,23,9.40
2015,02,11,06,24,9.40
2015,02,11,06,25,9.40
2015,02,11,06,26,9.40
2015,02,11,06,27,9.40
2015,02,11,06,28,9.40
2015,02,11,06,29,9.40
2015,02,11,06,30,9.40
2015,02,11,06,31,9.40
2015,02,11,06,32,9.40
2015,02,11,06,33,9.40
2015,02,11,06,34,9.30
2015,02,11,06,35,9.30
2015,02,11,06,36,9.30
2015,02,11,06,37,9.30
2015,02,11,06,38,9.30
2015,02,11,06,39,9.30
2015,02,11,06,40,9.30
2015,02,11,06,41,9.30
2015,02,11,06,42,9.30
2015,02,11,06,43,9.30
2015,02,11,06,44,9.30
2015,02,11,06,45,9.30
2015,02,11,06,46,9.30
2015,02,11,06,47,9.30
2015,02,11,06,48,9.30
2015,02,11,06,49,9.30
2015,02,11,06,50,9.30
2015,02,11,06,51,9.30
2015,02,11,06,52,9.20
2015,02,11,06,53,9.20
2015,02,11,06,54,9.20
2015,02,11,06,55,9.20
2015,02,11,06,56,9.20
2015,02,11,06,57,9.20
2015,02,11,06,58,9.20
2015,02,11,06,59,9.10
2015,02,11,07,00,9.20
2015,02,11,07,01,9.20
2015,02,11,07,02,9.20
2015,02,11,07,03,9.20
2015,02,11,07,04,9.20
2015,02,11,07,05,9.20
2015,02,11,07,06,9.20
2015,02,11,07,07,9.20
2015,02,11,07,08,9.20
2015,02,11,07,09,9.20
2015,02,11,07,10,9.20
2015,02,11,07,11,9.20
2015,02,11,07,12,9.20
2015,02,11,07,13,9.20
2015,02,11,07,14,9.20
2015,02,11,07,15,9.20
2015,02,11,07,16,9.10
2015,02,11,07,17,9.10
2015,02,11,07,18,9.10
2015,02,11,07,19,9.10
2015,02,11,07,20,9.10
2015,02,11,07,21,9.10
2015,02,11,07,22,9.10
2015,02,11,07,23,9.10
2015,02,11,07,24,9.10
2015,02,11,07,25,9.00
2015,02,11,07,26,9.00
2015,02,11,07,27,9.00
2015,02,11,07,28,9.00
2015,02,11,07,29,8.90
2015,02,11,07,30,8.90
2015,02,11,07,31,8.90
2015,02,11,07,32,8.90
2015,02,11,07,33,8.90
2015,02,11,07,34,8.90
2015,02,11,07,35,8.90
2015,02,11,07,36,8.90
2015,02,11,07,37,8.90
2015,02,11,07,38,8.90
2015,02,11,07,39,9.00
2015,02,11,07,40,9.00
2015,02,11,07,41,9.10
2015,02,11,07,42,9.10
2015,02,11,07,43,9.10
2015,02,11,07,44,9.10
2015,02,11,07,45,9.20
2015,02,11,07,46,9.20
2015,02,11,07,47,9.20
2015,02,11,07,48,9.20
2015,02,11,07,49,9.20
2015,02,11,07,50,9.20
2015,02,11,07,51,9.20
2015,02,11,07,52,9.20
2015,02,11,07,53,9.20
2015,02,11,07,54,9.20
2015,02,11,07,55,9.30
2015,02,11,07,56,9.30
2015,02,11,07,57,9.30
2015,02,11,07,58,9.30
2015,02,11,07,59,9.30
2015,02,11,08,00,9.30
2015,02,11,08,01,9.30
2015,02,11,08,02,9.30
2015,02,11,08,03,9.30
2015,02,11,08,04,9.40
2015,02,11,08,05,9.40
2015,02,11,08,06,9.40
2015,02,11,08,07,9.40
2015,02,11,08,08,9.40
2015,02,11,08,09,9.40
2015,02,11,08,10,9.40
2015,02,11,08,11,9.50
2015,02,11,08,12,9.50
2015,02,11,08,13,9.50
2015,02,11,08,14,9.60
2015,02,11,08,15,9.60
2015,02,11,08,16,9.60
2015,02,11,08,17,9.60
2015,02,11,08,18,9.60
2015,02,11,08,19,9.60
2015,02,11,08,20,9.60
2015,02,11,08,21,9.60
2015,02,11,08,22,9.60
2015,02,11,08,23,9.60
2015,02,11,08,24,9.60
2015,02,11,08,25,9.60
2015,02,11,08,26,9.60
2015,02,11,08,27,9.60
2015,02,11,08,28,9.70
2015,02,11,08,29,9.70
2015,02,11,08,30,9.70
2015,02,11,08,31,9.70
2015,02,11,08,32,9.80
2015,02,11,08,33,9.80
2015,02,11,08,34,9.80
2015,02,11,08,35,9.80
2015,02,11,08,36,9.80
2015,02,11,08,37,9.80
2015,02,11,08,38,9.70
2015,02,11,08,39,9.70
2015,02,11,08,40,9.70
2015,02,11,08,41,9.70
2015,02,11,08,42,9.70
2015,02,11,08,43,9.70
2015,02,11,08,44,9.70
2015,02,11,08,45,9.80
2015,02,11,08,46,9.80
2015,02,11,08,47,9.80
2015,02,11,08,48,9.80
2015,02,11,08,49,9.80
2015,02,11,08,50,9.80
2015,02,11,08,51,9.80
2015,02,11,08,52,9.80
2015,02,11,08,53,9.80
2015,02,11,08,54,9.80
2015,02,11,08,55,9.80
2015,02,11,08,56,9.80
2015,02,11,08,57,9.90
2015,02,11,08,58,9.90
2015,02,11,08,59,9.90
2015,02,11,09,00,9.90
2015,02,11,09,01,9.90
2015,02,11,09,02,9.90
2015,02,11,09,03,9.90
2015,02,11,09,04,9.90
2015,02,11,09,05,9.90
2015,02,11,09,06,9.90
2015,02,11,09,07,9.90
2015,02,11,09,08,9.90
2015,02,11,09,09,9.90
2015,02,11,09,10,9.90
2015,02,11,09,11,9.90
2015,02,11,09,12,9.90
2015,02,11,09,13,9.90
2015,02,11,09,14,9.90
2015,02,11,09,15,9.90
2015,02,11,09,16,9.90
2015,02,11,09,17,9.90
2015,02,11,09,18,9.90
2015,02,11,09,19,9.90
2015,02,11,09,20,9.90
2015,02,11,09,21,9.90
2015,02,11,09,22,9.90
2015,02,11,09,23,9.90
2015,02,11,09,24,9.90
2015,02,11,09,25,9.90
2015,02,11,09,26,9.80
2015,02,11,09,27,9.90
2015,02,11,09,28,9.90
2015,02,11,09,29,9.90
2015,02,11,09,30,9.90
2015,02,11,09,31,9.90
2015,02,11,09,32,9.90
2015,02,11,09,33,9.90
2015,02,11,09,34,9.90
2015,02,11,09,35,10.00
2015,02,11,09,36,10.00
2015,02,11,09,37,10.00
2015,02,11,09,38,10.00
2015,02,11,09,39,10.00
2015,02,11,09,40,10.00
2015,02,11,09,41,10.00
2015,02,11,09,42,9.90
2015,02,11,09,43,9.90
2015,02,11,09,44,9.90
2015,02,11,09,45,9.90
2015,02,11,09,46,9.90
2015,02,11,09,47,9.90
2015,02,11,09,48,9.90
2015,02,11,09,49,9.90
2015,02,11,09,50,9.90
2015,02,11,09,51,10.00
2015,02,11,09,52,9.90
2015,02,11,09,53,9.90
2015,02,11,09,54,9.90
2015,02,11,09,55,10.00
2015,02,11,09,56,10.00
2015,02,11,09,57,10.00
2015,02,11,09,58,10.00
2015,02,11,09,59,10.00
2015,02,11,10,00,10.00
2015,02,11,10,01,10.00
2015,02,11,10,02,10.00
2015,02,11,10,03,10.00
2015,02,11,10,04,10.00
2015,02,11,10,05,10.00
2015,02,11,10,06,10.10
2015,02,11,10,07,10.10
2015,02,11,10,08,10.10
2015,02,11,10,09,10.10
2015,02,11,10,10,10.10
2015,02,11,10,11,10.10
2015,02,11,10,12,10.10
2015,02,11,10,13,10.10
2015,02,11,10,14,10.10
2015,02,11,10,15,10.10
2015,02,11,10,16,10.10
2015,02,11,10,17,10.10
2015,02,11,10,18,10.10
2015,02,11,10,19,10.10
2015,02,11,10,20,10.10
2015,02,11,10,21,10.10
2015,02,11,10,22,10.10
2015,02,11,10,23,10.10
2015,02,11,10,24,10.10
2015,02,11,10,25,10.10
2015,02,11,10,26,10.10
2015,02,11,10,27,10.10
2015,02,11,10,28,10.10
2015,02,11,10,29,10.10
2015,02,11,10,30,10.20
2015,02,11,10,31,10.20
2015,02,11,10,32,10.20
2015,02,11,10,33,10.20
2015,02,11,10,34,10.20
2015,02,11,10,35,10.20
2015,02,11,10,36,10.20
2015,02,11,10,37,10.20
2015,02,11,10,38,10.20
2015,02,11,10,39,10.20
2015,02,11,10,40,10.20
2015,02,11,10,41,10.20
2015,02,11,10,42,10.20
2015,02,11,10,43,10.20
2015,02,11,10,44,10.20
2015,02,11,10,45,10.20
2015,02,11,10,46,10.30
2015,02,11,10,47,10.30
2015,02,11,10,48,10.30
2015,02,11,10,49,10.30
2015,02,11,10,50,10.20
2015,02,11,10,51,10.20
2015,02,11,10,52,10.20
2015,02,11,10,53,10.20
2015,02,11,10,54,10.20
2015,02,11,10,55,10.20
2015,02,11,10,56,10.30
2015,02,11,10,57,10.30
2015,02,11,10,58,10.30
2015,02,11,10,59,10.30
2015,02,11,11,00,10.30
2015,02,11,11,01,10.30
2015,02,11,11,02,10.40
2015,02,11,11,03,10.40
2015,02,11,11,04,10.40
2015,02,11,11,05,10.40
2015,02,11,11,06,10.50
2015,02,11,11,07,10.50
2015,02,11,11,08,10.60
2015,02,11,11,09,10.60
2015,02,11,11,10,10.60
2015,02,11,11,11,10.60
2015,02,11,11,12,10.60
2015,02,11,11,13,10.60
2015,02,11,11,14,10.60
2015,02,11,11,15,10.60
2015,02,11,11,16,10.60
2015,02,11,11,17,10.60
2015,02,11,11,18,10.60
2015,02,11,11,19,10.60
2015,02,11,11,20,10.60
2015,02,11,11,21,10.60
2015,02,11,11,22,10.60
2015,02,11,11,23,10.60
2015,02,11,11,24,10.60
2015,02,11,11,25,10.50
2015,02,11,11,26,10.50
2015,02,11,11,27,10.60
2015,02,11,11,28,10.60
2015,02,11,11,29,10.60
2015,02,11,11,30,10.60
2015,02,11,11,31,10.60
2015,02,11,11,32,10.60
2015,02,11,11,33,10.50
2015,02,11,11,34,10.50
2015,02,11,11,35,10.50
2015,02,11,11,36,10.50
2015,02,11,11,37,10.50
2015,02,11,11,38,10.50
2015,02,11,11,39,10.50
2015,02,11,11,40,10.50
2015,02,11,11,41,10.50
2015,02,11,11,42,10.50
2015,02,11,11,43,10.60
2015,02,11,11,44,10.50
2015,02,11,11,45,10.50
2015,02,11,11,46,10.50
2015,02,11,11,47,10.50
2015,02,11,11,48,10.50
2015,02,11,11,49,10.40
2015,02,11,11,50,10.40
2015,02,11,11,51,10.40
2015,02,11,11,52,10.30
2015,02,11,11,53,10.30
2015,02,11,11,54,10.30
2015,02,11,11,55,10.30
2015,02,11,11,56,10.40
2015,02,11,11,57,10.40
2015,02,11,11,58,10.50
2015,02,11,11,59,10.50
2015,02,11,12,00,10.60
2015,02,11,12,01,10.60
2015,02,11,12,02,10.60
2015,02,11,12,03,10.60
2015,02,11,12,04,10.60
2015,02,11,12,05,10.60
2015,02,11,12,06,10.60
2015,02,11,12,07,10.60
2015,02,11,12,08,10.60
2015,02,11,12,09,10.60
2015,02,11,12,10,10.60
2015,02,11,12,11,10.70
2015,02,11,12,12,10.70
2015,02,11,12,13,10.70
2015,02,11,12,14,10.70
2015,02,11,12,15,10.70
2015,02,11,12,16,10.80
2015,02,11,12,17,10.80
2015,02,11,12,18,10.80
2015,02,11,12,19,10.80
2015,02,11,12,20,10.80
2015,02,11,12,21,10.80
2015,02,11,12,22,10.80
2015,02,11,12,23,10.80
2015,02,11,12,24,10.80
2015,02,11,12,25,10.80
2015,02,11,12,26,10.80
2015,02,11,12,27,10.90
2015,02,11,12,28,10.90
2015,02,11,12,29,10.90
2015,02,11,12,30,10.90
2015,02,11,12,31,10.90
2015,02,11,12,32,10.90
2015,02,11,12,33,10.90
2015,02,11,12,34,11.00
2015,02,11,12,35,11.00
2015,02,11,12,36,11.00
2015,02,11,12,37,11.00
2015,02,11,12,38,11.00
2015,02,11,12,39,11.10
2015,02,11,12,40,11.10
2015,02,11,12,41,11.10
2015,02,11,12,42,11.20
2015,02,11,12,43,11.20
2015,02,11,12,44,11.20
2015,02,11,12,45,11.20
2015,02,11,12,46,11.20
2015,02,11,12,47,11.20
2015,02,11,12,48,11.10
2015,02,11,12,49,11.10
2015,02,11,12,50,11.10
2015,02,11,12,51,11.10
2015,02,11,12,52,11.10
2015,02,11,12,53,11.10
2015,02,11,12,54,11.10
2015,02,11,12,55,11.10
2015,02,11,12,56,11.10
2015,02,11,12,57,11.10
2015,02,11,12,58,11.10
2015,02,11,12,59,11.10
2015,02,11,13,00,11.10
2015,02,11,13,01,11.10
2015,02,11,13,02,11.10
2015,02,11,13,03,11.10
2015,02,11,13,04,11.10
2015,02,11,13,05,11.10
2015,02,11,13,06,11.10
2015,02,11,13,07,11.20
2015,02,11,13,08,11.20
2015,02,11,13,09,11.20
2015,02,11,13,10,11.30
2015,02,11,13,11,11.30
2015,02,11,13,12,11.30
2015,02,11,13,13,11.30
2015,02,11,13,14,11.30
2015,02,11,13,15,11.30
2015,02,11,13,16,11.30
2015,02,11,13,17,11.30
2015,02,11,13,18,11.30
2015,02,11,13,19,11.30
2015,02,11,13,20,11.30
2015,02,11,13,21,11.30
2015,02,11,13,22,11.30
2015,02,11,13,23,11.30
2015,02,11,13,24,11.30
2015,02,11,13,25,11.30
2015,02,11,13,26,11.30
2015,02,11,13,27,11.30
2015,02,11,13,28,11.30
2015,02,11,13,29,11.30
2015,02,11,13,30,11.30
2015,02,11,13,31,11.30
2015,02,11,13,32,11.30
2015,02,11,13,33,11.30
2015,02,11,13,34,11.30
2015,02,11,13,35,11.30
2015,02,11,13,36,11.40
2015,02,11,13,37,11.40
2015,02,11,13,38,11.40
2015,02,11,13,39,11.40
2015,02,11,13,40,11.40
2015,02,11,13,41,11.40
2015,02,11,13,42,11.40
2015,02,11,13,43,11.40
2015,02,11,13,44,11.40
2015,02,11,13,45,11.40
2015,02,11,13,46,11.40
2015,02,11,13,47,11.40
2015,02,11,13,48,11.40
2015,02,11,13,49,11.40
2015,02,11,13,50,11.40
2015,02,11,13,51,11.40
2015,02,11,13,52,11.50
2015,02,11,13,53,11.40
2015,02,11,13,54,11.50
2015,02,11,13,55,11.50
2015,02,11,13,56,11.50
2015,02,11,13,57,11.50
2015,02,11,13,58,11.50
2015,02,11,13,59,11.50
2015,02,11,14,00,11.60
2015,02,11,14,01,11.60
2015,02,11,14,02,11.60
2015,02,11,14,03,11.60
2015,02,11,14,04,11.60
2015,02,11,14,05,11.60
2015,02,11,14,06,11.60
2015,02,11,14,07,11.60
2015,02,11,14,08,11.60
2015,02,11,14,09,11.60
2015,02,11,14,10,11.60
2015,02,11,14,11,11.60
2015,02,11,14,12,11.60
2015,02,11,14,13,11.60
2015,02,11,14,14,11.60
2015,02,11,14,15,11.60
2015,02,11,14,16,11.60
2015,02,11,14,17,11.60
2015,02,11,14,18,11.60
2015,02,11,14,19,11.60
2015,02,11,14,20,11.60
2015,02,11,14,21,11.60
2015,02,11,14,22,11.60
2015,02,11,14,23,11.60
2015,02,11,14,24,11.60
2015,02,11,14,25,11.60
2015,02,11,14,26,11.60
2015,02,11,14,27,11.60
2015,02,11,14,28,11.60
2015,02,11,14,29,11.70
2015,02,11,14,30,11.70
2015,02,11,14,31,11.70
2015,02,11,14,32,11.70
2015,02,11,14,33,11.70
2015,02,11,14,34,11.80
2015,02,11,14,35,11.80
2015,02,11,14,36,11.80
2015,02,11,14,37,11.80
2015,02,11,14,38,11.80
2015,02,11,14,39,11.90
2015,02,11,14,40,11.90
2015,02,11,14,41,11.90
2015,02,11,14,42,11.90
2015,02,11,14,43,11.90
2015,02,11,14,44,11.90
2015,02,11,14,45,12.00
2015,02,11,14,46,12.00
2015,02,11,14,47,12.10
2015,02,11,14,48,12.10
2015,02,11,14,49,12.10
2015,02,11,14,50,12.10
2015,02,11,14,51,12.20
2015,02,11,14,52,12.20
2015,02,11,14,53,12.20
2015,02,11,14,54,12.20
2015,02,11,14,55,12.20
2015,02,11,14,56,12.30
2015,02,11,14,57,12.30
2015,02,11,14,58,12.30
2015,02,11,14,59,12.30
2015,02,11,15,00,12.30
2015,02,11,15,01,12.30
2015,02,11,15,02,12.30
2015,02,11,15,03,12.30
2015,02,11,15,04,12.30
2015,02,11,15,05,12.20
2015,02,11,15,06,12.30
2015,02,11,15,07,12.30
2015,02,11,15,08,12.40
2015,02,11,15,09,12.40
2015,02,11,15,10,12.40
2015,02,11,15,11,12.50
2015,02,11,15,12,12.50
2015,02,11,15,13,12.50
2015,02,11,15,14,12.60
2015,02,11,15,15,12.60
2015,02,11,15,16,12.60
2015,02,11,15,17,12.60
2015,02,11,15,18,12.60
2015,02,11,15,19,12.60
2015,02,11,15,20,12.60
2015,02,11,15,21,12.60
2015,02,11,15,22,12.60
2015,02,11,15,23,12.60
2015,02,11,15,24,12.60
2015,02,11,15,25,12.60
2015,02,11,15,26,12.60
2015,02,11,15,27,12.60
2015,02,11,15,28,12.60
2015,02,11,15,29,12.60
2015,02,11,15,30,12.60
2015,02,11,15,31,12.60
2015,02,11,15,32,12.60
2015,02,11,15,33,12.60
2015,02,11,15,34,12.60
2015,02,11,15,35,12.60
2015,02,11,15,36,12.60
2015,02,11,15,37,12.60
2015,02,11,15,38,12.60
2015,02,11,15,39,12.60
2015,02,11,15,40,12.60
2015,02,11,15,41,12.60
2015,02,11,15,42,12.50
2015,02,11,15,43,12.40
2015,02,11,15,44,12.10
2015,02,11,15,45,11.90
2015,02,11,15,46,11.70
2015,02,11,15,47,11.40
2015,02,11,15,48,11.10
2015,02,11,15,49,10.90
2015,02,11,15,50,10.70
2015,02,11,15,51,10.60
2015,02,11,15,52,10.50
2015,02,11,15,53,10.40
2015,02,11,15,54,10.40
2015,02,11,15,55,10.30
2015,02,11,15,56,10.30
2015,02,11,15,57,10.30
2015,02,11,15,58,10.30
2015,02,11,15,59,10.20
2015,02,11,16,00,10.10
2015,02,11,16,01,10.00
2015,02,11,16,02,9.90
2015,02,11,16,03,9.90
2015,02,11,16,04,9.90
2015,02,11,16,05,9.80
2015,02,11,16,06,9.80
2015,02,11,16,07,9.80
2015,02,11,16,08,9.80
2015,02,11,16,09,9.80
2015,02,11,16,10,9.80
2015,02,11,16,11,9.80
2015,02,11,16,12,9.80
2015,02,11,16,13,9.80
2015,02,11,16,14,9.80
2015,02,11,16,15,9.70
2015,02,11,16,16,9.70
2015,02,11,16,17,9.70
2015,02,11,16,18,9.70
2015,02,11,16,19,9.60
2015,02,11,16,20,9.60
2015,02,11,16,21,9.60
2015,02,11,16,22,9.60
2015,02,11,16,23,9.60
2015,02,11,16,24,9.60
2015,02,11,16,25,9.60
2015,02,11,16,26,9.60
2015,02,11,16,27,9.60
2015,02,11,16,28,9.60
2015,02,11,16,29,9.60
2015,02,11,16,30,9.60
2015,02,11,16,31,9.60
2015,02,11,16,32,9.60
2015,02,11,16,33,9.60
2015,02,11,16,34,9.60
2015,02,11,16,35,9.60
2015,02,11,16,36,9.60
2015,02,11,16,37,9.60
2015,02,11,16,38,9.60
2015,02,11,16,39,9.70
2015,02,11,16,40,9.80
2015,02,11,16,41,10.00
2015,02,11,16,42,10.20
2015,02,11,16,43,10.40
2015,02,11,16,44,10.60
2015,02,11,16,45,10.70
2015,02,11,16,46,10.80
2015,02,11,16,47,10.90
2015,02,11,16,48,11.10
2015,02,11,16,49,11.10
2015,02,11,16,50,11.20
2015,02,11,16,51,11.20
2015,02,11,16,52,11.30
2015,02,11,16,53,11.40
2015,02,11,16,54,11.40
2015,02,11,16,55,11.40
2015,02,11,16,56,11.50
2015,02,11,16,57,11.50
2015,02,11,16,58,11.50
2015,02,11,16,59,11.40
2015,02,11,17,00,11.40
2015,02,11,17,01,11.20
2015,02,11,17,02,11.10
2015,02,11,17,03,11.00
2015,02,11,17,04,10.90
2015,02,11,17,05,10.80
2015,02,11,17,06,10.70
2015,02,11,17,07,10.50
2015,02,11,17,08,10.40
2015,02,11,17,09,10.30
2015,02,11,17,10,10.20
2015,02,11,17,11,10.10
2015,02,11,17,12,10.00
2015,02,11,17,13,10.00
2015,02,11,17,14,9.90
2015,02,11,17,15,9.90
2015,02,11,17,16,9.90
2015,02,11,17,17,9.80
2015,02,11,17,18,9.80
2015,02,11,17,19,9.90
2015,02,11,17,20,9.90
2015,02,11,17,21,9.90
2015,02,11,17,22,9.80
2015,02,11,17,23,9.80
2015,02,11,17,24,9.70
2015,02,11,17,25,9.70
2015,02,11,17,26,9.70
2015,02,11,17,27,9.60
2015,02,11,17,28,9.60
2015,02,11,17,29,9.60
2015,02,11,17,30,9.60
2015,02,11,17,31,9.50
2015,02,11,17,32,9.50
2015,02,11,17,33,9.50
2015,02,11,17,34,9.50
2015,02,11,17,35,9.50
2015,02,11,17,36,9.60
2015,02,11,17,37,9.70
2015,02,11,17,38,9.80
2015,02,11,17,39,9.90
2015,02,11,17,40,9.90
2015,02,11,17,41,10.00
2015,02,11,17,42,10.10
2015,02,11,17,43,10.10
2015,02,11,17,44,10.30
2015,02,11,17,45,10.30
2015,02,11,17,46,10.40
2015,02,11,17,47,10.40